Time,TemperatureF,DewpointF,PressureIn,WindDirection,WindDirectionDegrees,WindSpeedMPH,WindSpeedGustMPH,Humidity,HourlyPrecipIn,Conditions,Clouds,dailyrainin,SoftwareType,DateUTC
2013-11-25 00:05:00,25.6,16.8,30.46,SSE,164,5.0,5.0,69,0.00,,,0.00,Wunderground v.1.15,2013-11-25 06:05:00,
2013-11-25 00:11:00,25.6,16.8,30.46,SSE,157,5.0,5.0,69,0.00,,,0.00,Wunderground v.1.15,2013-11-25 06:11:00,
2013-11-25 00:17:00,25.6,16.5,30.46,SSE,158,6.0,10.0,68,0.00,,,0.00,Wunderground v.1.15,2013-11-25 06:17:00,
2013-11-25 00:23:00,25.6,16.5,30.45,SSE,163,6.0,10.0,68,0.00,,,0.00,Wunderground v.1.15,2013-11-25 06:23:00,
2013-11-25 00:29:00,25.7,16.6,30.46,South,177,6.0,10.0,68,0.00,,,0.00,Wunderground v.1.15,2013-11-25 06:29:00,
2013-11-25 00:35:00,25.8,16.3,30.46,SSE,167,7.0,7.0,67,0.00,,,0.00,Wunderground v.1.15,2013-11-25 06:35:00,
2013-11-25 00:41:00,25.8,16.3,30.45,SSE,166,6.0,6.0,67,0.00,,,0.00,Wunderground v.1.15,2013-11-25 06:41:00,
2013-11-25 00:47:00,25.9,16.4,30.45,South,175,7.0,10.0,67,0.00,,,0.00,Wunderground v.1.15,2013-11-25 06:47:00,
2013-11-25 00:53:00,25.9,16.4,30.44,South,189,6.0,8.0,67,0.00,,,0.00,Wunderground v.1.15,2013-11-25 06:53:00,
2013-11-25 00:59:00,26.0,16.5,30.44,South,179,6.0,8.0,67,0.00,,,0.00,Wunderground v.1.15,2013-11-25 06:59:00,
2013-11-25 01:05:00,26.0,16.9,30.44,South,171,6.0,7.0,68,0.00,,,0.00,Wunderground v.1.15,2013-11-25 07:05:00,
2013-11-25 01:10:00,26.0,16.9,30.43,SSE,159,6.0,10.0,68,0.00,,,0.00,Wunderground v.1.15,2013-11-25 07:10:00,
2013-11-25 01:16:00,26.0,16.5,30.43,South,177,7.0,11.0,67,0.00,,,0.00,Wunderground v.1.15,2013-11-25 07:16:00,
2013-11-25 01:22:00,26.1,16.6,30.43,SSE,165,7.0,7.0,67,0.00,,,0.00,Wunderground v.1.15,2013-11-25 07:22:00,
2013-11-25 01:28:00,26.2,17.1,30.42,SSE,163,7.0,13.0,68,0.00,,,0.00,Wunderground v.1.15,2013-11-25 07:28:00,
2013-11-25 01:33:00,26.2,16.7,30.42,SSE,158,7.0,8.0,67,0.00,,,0.00,Wunderground v.1.15,2013-11-25 07:33:00,
2013-11-25 01:39:00,26.3,16.5,30.42,South,172,7.0,14.0,66,0.00,,,0.00,Wunderground v.1.15,2013-11-25 07:39:00,
2013-11-25 01:45:00,26.3,16.5,30.42,SSE,166,8.0,13.0,66,0.00,,,0.00,Wunderground v.1.15,2013-11-25 07:45:00,
2013-11-25 01:51:00,26.4,16.6,30.43,South,187,7.0,7.0,66,0.00,,,0.00,Wunderground v.1.15,2013-11-25 07:51:00,
2013-11-25 01:57:00,26.5,17.0,30.42,South,180,6.0,9.0,67,0.00,,,0.00,Wunderground v.1.15,2013-11-25 07:57:00,
2013-11-25 02:03:00,26.6,16.8,30.42,South,181,6.0,10.0,66,0.00,,,0.00,Wunderground v.1.15,2013-11-25 08:03:00,
2013-11-25 02:09:00,26.6,17.1,30.42,SSE,167,7.0,10.0,67,0.00,,,0.00,Wunderground v.1.15,2013-11-25 08:09:00,
2013-11-25 02:15:00,26.5,17.0,30.42,SSE,168,6.0,8.0,67,0.00,,,0.00,Wunderground v.1.15,2013-11-25 08:15:00,
2013-11-25 02:21:00,26.6,17.1,30.42,South,191,6.0,6.0,67,0.00,,,0.00,Wunderground v.1.15,2013-11-25 08:21:00,
2013-11-25 02:27:00,26.6,17.1,30.42,South,181,5.0,10.0,67,0.00,,,0.00,Wunderground v.1.15,2013-11-25 08:27:00,
2013-11-25 02:33:00,26.6,17.1,30.41,South,175,6.0,7.0,67,0.00,,,0.00,Wunderground v.1.15,2013-11-25 08:33:00,
2013-11-25 02:39:00,26.6,17.1,30.40,SSE,164,6.0,11.0,67,0.00,,,0.00,Wunderground v.1.15,2013-11-25 08:39:00,
2013-11-25 02:45:00,26.6,17.1,30.40,SSE,162,6.0,10.0,67,0.00,,,0.00,Wunderground v.1.15,2013-11-25 08:45:00,
2013-11-25 02:51:00,26.5,17.0,30.40,South,169,7.0,7.0,67,0.00,,,0.00,Wunderground v.1.15,2013-11-25 08:51:00,
2013-11-25 02:57:00,26.5,17.0,30.39,South,171,7.0,10.0,67,0.00,,,0.00,Wunderground v.1.15,2013-11-25 08:57:00,
2013-11-25 03:03:00,26.5,17.4,30.40,South,179,7.0,8.0,68,0.00,,,0.00,Wunderground v.1.15,2013-11-25 09:03:00,
2013-11-25 03:09:00,26.5,17.4,30.40,South,172,6.0,8.0,68,0.00,,,0.00,Wunderground v.1.15,2013-11-25 09:09:00,
2013-11-25 03:15:00,26.4,17.3,30.40,South,187,6.0,10.0,68,0.00,,,0.00,Wunderground v.1.15,2013-11-25 09:15:00,
2013-11-25 03:21:00,26.4,17.3,30.39,South,177,6.0,6.0,68,0.00,,,0.00,Wunderground v.1.15,2013-11-25 09:21:00,
2013-11-25 03:27:00,26.5,17.4,30.39,South,183,5.0,8.0,68,0.00,,,0.00,Wunderground v.1.15,2013-11-25 09:27:00,
2013-11-25 03:33:00,26.5,17.4,30.38,SSE,165,6.0,10.0,68,0.00,,,0.00,Wunderground v.1.15,2013-11-25 09:33:00,
2013-11-25 03:39:00,26.5,17.4,30.38,South,179,7.0,10.0,68,0.00,,,0.00,Wunderground v.1.15,2013-11-25 09:39:00,
2013-11-25 03:45:00,26.6,17.5,30.38,South,187,6.0,9.0,68,0.00,,,0.00,Wunderground v.1.15,2013-11-25 09:45:00,
2013-11-25 03:51:00,26.7,17.6,30.39,South,187,6.0,9.0,68,0.00,,,0.00,Wunderground v.1.15,2013-11-25 09:51:00,
2013-11-25 03:57:00,26.7,17.6,30.38,SSW,197,7.0,10.0,68,0.00,,,0.00,Wunderground v.1.15,2013-11-25 09:57:00,
2013-11-25 04:03:00,26.7,17.2,30.37,South,179,7.0,12.0,67,0.00,,,0.00,Wunderground v.1.15,2013-11-25 10:03:00,
2013-11-25 04:09:00,26.7,17.6,30.37,South,176,6.0,12.0,68,0.00,,,0.00,Wunderground v.1.15,2013-11-25 10:09:00,
2013-11-25 04:15:00,26.8,17.6,30.37,SSW,192,6.0,10.0,68,0.00,,,0.00,Wunderground v.1.15,2013-11-25 10:15:00,
2013-11-25 04:21:00,26.8,17.6,30.37,SSW,201,7.0,7.0,68,0.00,,,0.00,Wunderground v.1.15,2013-11-25 10:21:00,
2013-11-25 04:27:00,26.9,17.7,30.37,South,172,8.0,13.0,68,0.00,,,0.00,Wunderground v.1.15,2013-11-25 10:27:00,
2013-11-25 04:32:00,27.0,17.5,30.37,SSW,196,7.0,10.0,67,0.00,,,0.00,Wunderground v.1.15,2013-11-25 10:32:00,
2013-11-25 04:38:00,27.0,17.8,30.37,SSW,193,7.0,10.0,68,0.00,,,0.00,Wunderground v.1.15,2013-11-25 10:38:00,
2013-11-25 04:44:00,27.1,17.9,30.37,South,174,6.0,9.0,68,0.00,,,0.00,Wunderground v.1.15,2013-11-25 10:44:00,
2013-11-25 04:50:00,27.2,18.0,30.36,South,186,7.0,10.0,68,0.00,,,0.00,Wunderground v.1.15,2013-11-25 10:50:00,
2013-11-25 04:56:00,27.3,18.1,30.36,South,187,7.0,8.0,68,0.00,,,0.00,Wunderground v.1.15,2013-11-25 10:56:00,
2013-11-25 05:01:00,27.3,18.1,30.36,South,185,6.0,10.0,68,0.00,,,0.00,Wunderground v.1.15,2013-11-25 11:01:00,
2013-11-25 05:07:00,27.4,18.2,30.35,South,171,6.0,10.0,68,0.00,,,0.00,Wunderground v.1.15,2013-11-25 11:07:00,
2013-11-25 05:13:00,27.5,18.7,30.35,SSE,159,6.0,7.0,69,0.00,,,0.00,Wunderground v.1.15,2013-11-25 11:13:00,
2013-11-25 05:19:00,27.5,18.3,30.34,SSE,167,6.0,10.0,68,0.00,,,0.00,Wunderground v.1.15,2013-11-25 11:19:00,
2013-11-25 05:25:00,27.5,18.3,30.35,South,172,7.0,10.0,68,0.00,,,0.00,Wunderground v.1.15,2013-11-25 11:25:00,
2013-11-25 05:31:00,27.6,18.8,30.35,South,187,5.0,5.0,69,0.00,,,0.00,Wunderground v.1.15,2013-11-25 11:31:00,
2013-11-25 05:37:00,27.7,18.5,30.35,South,188,4.0,10.0,68,0.00,,,0.00,Wunderground v.1.15,2013-11-25 11:37:00,
2013-11-25 05:43:00,27.8,18.3,30.36,SSW,196,7.0,8.0,67,0.00,,,0.00,Wunderground v.1.15,2013-11-25 11:43:00,
2013-11-25 05:49:00,27.8,18.6,30.35,SSW,194,8.0,10.0,68,0.00,,,0.00,Wunderground v.1.15,2013-11-25 11:49:00,
2013-11-25 05:55:00,27.9,18.7,30.34,SSW,192,6.0,7.0,68,0.00,,,0.00,Wunderground v.1.15,2013-11-25 11:55:00,
2013-11-25 06:01:00,27.9,18.4,30.34,SSE,164,6.0,6.0,67,0.00,,,0.00,Wunderground v.1.15,2013-11-25 12:01:00,
2013-11-25 06:07:00,27.9,18.4,30.34,SSW,206,6.0,8.0,67,0.00,,,0.00,Wunderground v.1.15,2013-11-25 12:07:00,
2013-11-25 06:13:00,27.9,18.4,30.34,South,180,7.0,8.0,67,0.00,,,0.00,Wunderground v.1.15,2013-11-25 12:13:00,
2013-11-25 06:19:00,28.1,18.5,30.34,South,181,7.0,8.0,67,0.00,,,0.00,Wunderground v.1.15,2013-11-25 12:19:00,
2013-11-25 06:25:00,28.1,18.2,30.34,South,180,7.0,10.0,66,0.00,,,0.00,Wunderground v.1.15,2013-11-25 12:25:00,
2013-11-25 06:31:00,28.1,18.2,30.35,SSW,194,9.0,9.0,66,0.00,,,0.00,Wunderground v.1.15,2013-11-25 12:31:00,
2013-11-25 06:37:00,28.2,18.6,30.34,South,173,7.0,11.0,67,0.00,,,0.00,Wunderground v.1.15,2013-11-25 12:37:00,
2013-11-25 06:43:00,28.3,18.7,30.34,South,186,7.0,7.0,67,0.00,,,0.00,Wunderground v.1.15,2013-11-25 12:43:00,
2013-11-25 06:49:00,28.3,18.7,30.33,South,169,6.0,10.0,67,0.00,,,0.00,Wunderground v.1.15,2013-11-25 12:49:00,
2013-11-25 06:55:00,28.3,18.7,30.34,SSW,205,7.0,12.0,67,0.00,,,0.00,Wunderground v.1.15,2013-11-25 12:55:00,
2013-11-25 07:01:00,28.3,18.7,30.34,SSW,193,8.0,8.0,67,0.00,,,0.00,Wunderground v.1.15,2013-11-25 13:01:00,
2013-11-25 07:07:00,28.3,18.7,30.33,South,191,8.0,12.0,67,0.00,,,0.00,Wunderground v.1.15,2013-11-25 13:07:00,
2013-11-25 07:13:00,28.4,19.2,30.33,SSW,193,8.0,11.0,68,0.00,,,0.00,Wunderground v.1.15,2013-11-25 13:13:00,
2013-11-25 07:19:00,28.4,19.2,30.33,South,187,8.0,11.0,68,0.00,,,0.00,Wunderground v.1.15,2013-11-25 13:19:00,
2013-11-25 07:25:00,28.4,19.2,30.33,SSW,192,8.0,11.0,68,0.00,,,0.00,Wunderground v.1.15,2013-11-25 13:25:00,
2013-11-25 07:31:00,28.4,19.2,30.33,SSW,194,7.0,8.0,68,0.00,,,0.00,Wunderground v.1.15,2013-11-25 13:31:00,
2013-11-25 07:37:00,28.5,19.6,30.32,SSW,197,6.0,8.0,69,0.00,,,0.00,Wunderground v.1.15,2013-11-25 13:37:00,
2013-11-25 07:43:00,28.5,19.3,30.32,SSW,194,6.0,9.0,68,0.00,,,0.00,Wunderground v.1.15,2013-11-25 13:43:00,
2013-11-25 07:49:00,28.6,19.7,30.32,South,176,6.0,9.0,69,0.00,,,0.00,Wunderground v.1.15,2013-11-25 13:49:00,
2013-11-25 07:55:00,28.7,19.5,30.32,SSE,164,6.0,10.0,68,0.00,,,0.00,Wunderground v.1.15,2013-11-25 13:55:00,
2013-11-25 08:01:00,28.8,19.9,30.32,SSW,205,7.0,7.0,69,0.00,,,0.00,Wunderground v.1.15,2013-11-25 14:01:00,
2013-11-25 08:07:00,28.8,19.6,30.32,SSW,199,7.0,10.0,68,0.00,,,0.00,Wunderground v.1.15,2013-11-25 14:07:00,
2013-11-25 08:13:00,28.9,19.7,30.31,South,185,7.0,12.0,68,0.00,,,0.00,Wunderground v.1.15,2013-11-25 14:13:00,
2013-11-25 08:19:00,28.9,19.7,30.31,South,179,7.0,12.0,68,0.00,,,0.00,Wunderground v.1.15,2013-11-25 14:19:00,
2013-11-25 08:25:00,29.1,19.8,30.31,SSW,195,7.0,12.0,68,0.00,,,0.00,Wunderground v.1.15,2013-11-25 14:25:00,
2013-11-25 08:31:00,29.2,19.9,30.32,South,188,8.0,8.0,68,0.00,,,0.00,Wunderground v.1.15,2013-11-25 14:31:00,
2013-11-25 08:37:00,29.3,19.7,30.31,SSW,194,9.0,14.0,67,0.00,,,0.00,Wunderground v.1.15,2013-11-25 14:37:00,
2013-11-25 08:43:00,29.3,19.7,30.32,SSW,202,9.0,10.0,67,0.00,,,0.00,Wunderground v.1.15,2013-11-25 14:43:00,
2013-11-25 08:49:00,29.5,20.2,30.32,SSW,200,8.0,14.0,68,0.00,,,0.00,Wunderground v.1.15,2013-11-25 14:49:00,
2013-11-25 08:55:00,29.6,20.3,30.32,SSW,206,9.0,12.0,68,0.00,,,0.00,Wunderground v.1.15,2013-11-25 14:55:00,
2013-11-25 09:01:00,29.7,20.4,30.32,SSW,202,9.0,10.0,68,0.00,,,0.00,Wunderground v.1.15,2013-11-25 15:01:00,
2013-11-25 09:06:00,29.8,20.5,30.32,SSW,192,8.0,10.0,68,0.00,,,0.00,Wunderground v.1.15,2013-11-25 15:06:00,
2013-11-25 09:12:00,29.8,19.8,30.32,South,171,10.0,12.0,66,0.00,,,0.00,Wunderground v.1.15,2013-11-25 15:12:00,
2013-11-25 09:18:00,30.0,20.4,30.32,SSW,194,11.0,12.0,67,0.00,,,0.00,Wunderground v.1.15,2013-11-25 15:18:00,
2013-11-25 09:24:00,30.0,20.4,30.32,SSW,201,9.0,15.0,67,0.00,,,0.00,Wunderground v.1.15,2013-11-25 15:24:00,
2013-11-25 09:30:00,30.2,20.6,30.31,SSW,209,9.0,15.0,67,0.00,,,0.00,Wunderground v.1.15,2013-11-25 15:30:00,
2013-11-25 09:36:00,30.3,20.3,30.31,SSW,203,7.0,14.0,66,0.00,,,0.00,Wunderground v.1.15,2013-11-25 15:36:00,
2013-11-25 09:42:00,30.5,20.5,30.31,SSW,202,9.0,16.0,66,0.00,,,0.00,Wunderground v.1.15,2013-11-25 15:42:00,
2013-11-25 09:48:00,30.5,20.5,30.31,SW,219,9.0,16.0,66,0.00,,,0.00,Wunderground v.1.15,2013-11-25 15:48:00,
2013-11-25 09:54:00,30.7,20.7,30.31,SSW,202,9.0,16.0,66,0.00,,,0.00,Wunderground v.1.15,2013-11-25 15:54:00,
2013-11-25 10:00:00,30.9,20.9,30.31,SSW,192,9.0,16.0,66,0.00,,,0.00,Wunderground v.1.15,2013-11-25 16:00:00,
2013-11-25 10:06:00,31.1,20.7,30.31,SSW,200,9.0,11.0,65,0.00,,,0.00,Wunderground v.1.15,2013-11-25 16:06:00,
2013-11-25 10:12:00,31.3,20.9,30.31,South,175,8.0,8.0,65,0.00,,,0.00,Wunderground v.1.15,2013-11-25 16:12:00,
2013-11-25 10:18:00,31.5,20.7,30.30,SSW,208,7.0,12.0,64,0.00,,,0.00,Wunderground v.1.15,2013-11-25 16:18:00,
2013-11-25 10:24:00,31.6,20.8,30.30,South,190,9.0,12.0,64,0.00,,,0.00,Wunderground v.1.15,2013-11-25 16:24:00,
2013-11-25 10:30:00,31.7,20.5,30.30,SSW,192,9.0,14.0,63,0.00,,,0.00,Wunderground v.1.15,2013-11-25 16:30:00,
2013-11-25 10:36:00,31.8,21.0,30.30,SSE,163,8.0,9.0,64,0.00,,,0.00,Wunderground v.1.15,2013-11-25 16:36:00,
2013-11-25 10:42:00,32.0,20.8,30.30,SSW,194,7.0,12.0,63,0.00,,,0.00,Wunderground v.1.15,2013-11-25 16:42:00,
2013-11-25 10:48:00,32.0,20.8,30.30,SSW,207,9.0,13.0,63,0.00,,,0.00,Wunderground v.1.15,2013-11-25 16:48:00,
2013-11-25 10:54:00,32.0,20.8,30.29,SSW,194,8.0,10.0,63,0.00,,,0.00,Wunderground v.1.15,2013-11-25 16:54:00,
2013-11-25 11:00:00,32.0,20.4,30.28,South,176,8.0,11.0,62,0.00,,,0.00,Wunderground v.1.15,2013-11-25 17:00:00,
2013-11-25 11:06:00,32.2,21.0,30.28,SSW,198,7.0,10.0,63,0.00,,,0.00,Wunderground v.1.15,2013-11-25 17:06:00,
2013-11-25 11:12:00,32.4,21.2,30.27,SSW,200,7.0,12.0,63,0.00,,,0.00,Wunderground v.1.15,2013-11-25 17:12:00,
2013-11-25 11:18:00,32.3,20.7,30.28,SSW,198,9.0,13.0,62,0.00,,,0.00,Wunderground v.1.15,2013-11-25 17:18:00,
2013-11-25 11:24:00,32.3,20.7,30.27,SSW,193,9.0,10.0,62,0.00,,,0.00,Wunderground v.1.15,2013-11-25 17:24:00,
2013-11-25 11:30:00,32.5,20.9,30.26,SSW,210,7.0,10.0,62,0.00,,,0.00,Wunderground v.1.15,2013-11-25 17:30:00,
2013-11-25 11:36:00,32.6,20.6,30.26,SSW,213,7.0,9.0,61,0.00,,,0.00,Wunderground v.1.15,2013-11-25 17:36:00,
2013-11-25 11:42:00,32.6,21.0,30.26,SW,218,7.0,8.0,62,0.00,,,0.00,Wunderground v.1.15,2013-11-25 17:42:00,
2013-11-25 11:48:00,32.8,21.6,30.26,SW,223,7.0,8.0,63,0.00,,,0.00,Wunderground v.1.15,2013-11-25 17:48:00,
2013-11-25 11:54:00,32.9,20.9,30.25,SSW,211,6.0,12.0,61,0.00,,,0.00,Wunderground v.1.15,2013-11-25 17:54:00,
2013-11-25 12:00:00,33.0,21.0,30.26,South,190,7.0,12.0,61,0.00,,,0.00,Wunderground v.1.15,2013-11-25 18:00:00,
2013-11-25 12:06:00,33.2,21.2,30.26,SSW,205,7.0,12.0,61,0.00,,,0.00,Wunderground v.1.15,2013-11-25 18:06:00,
2013-11-25 12:12:00,33.3,20.9,30.26,SW,214,7.0,9.0,60,0.00,,,0.00,Wunderground v.1.15,2013-11-25 18:12:00,
2013-11-25 12:18:00,33.3,20.9,30.26,SSW,213,7.0,12.0,60,0.00,,,0.00,Wunderground v.1.15,2013-11-25 18:18:00,
2013-11-25 12:24:00,33.4,21.0,30.26,SW,215,8.0,12.0,60,0.00,,,0.00,Wunderground v.1.15,2013-11-25 18:24:00,
2013-11-25 12:30:00,33.5,21.5,30.25,SW,221,8.0,12.0,61,0.00,,,0.00,Wunderground v.1.15,2013-11-25 18:30:00,
2013-11-25 12:36:00,33.7,21.3,30.25,SW,218,7.0,11.0,60,0.00,,,0.00,Wunderground v.1.15,2013-11-25 18:36:00,
2013-11-25 12:41:00,33.7,20.9,30.25,SSW,212,8.0,9.0,59,0.00,,,0.00,Wunderground v.1.15,2013-11-25 18:41:00,
2013-11-25 12:47:00,33.8,21.0,30.25,SSW,208,7.0,10.0,59,0.00,,,0.00,Wunderground v.1.15,2013-11-25 18:47:00,
2013-11-25 12:53:00,34.0,20.8,30.25,SSW,213,7.0,8.0,58,0.00,,,0.00,Wunderground v.1.15,2013-11-25 18:53:00,
2013-11-25 12:59:00,34.1,20.4,30.24,SW,230,7.0,9.0,57,0.00,,,0.00,Wunderground v.1.15,2013-11-25 18:59:00,
2013-11-25 13:05:00,34.2,20.1,30.23,SW,224,8.0,10.0,56,0.00,,,0.00,Wunderground v.1.15,2013-11-25 19:05:00,
2013-11-25 13:11:00,34.4,19.9,30.23,SW,233,9.0,9.0,55,0.00,,,0.00,Wunderground v.1.15,2013-11-25 19:11:00,
2013-11-25 13:17:00,34.4,20.3,30.23,SSW,208,8.0,11.0,56,0.00,,,0.00,Wunderground v.1.15,2013-11-25 19:17:00,
2013-11-25 13:23:00,34.6,20.1,30.22,SSW,206,7.0,10.0,55,0.00,,,0.00,Wunderground v.1.15,2013-11-25 19:23:00,
2013-11-25 13:29:00,34.7,20.2,30.23,SSW,210,7.0,10.0,55,0.00,,,0.00,Wunderground v.1.15,2013-11-25 19:29:00,
2013-11-25 13:35:00,34.7,19.7,30.23,SW,220,8.0,9.0,54,0.00,,,0.00,Wunderground v.1.15,2013-11-25 19:35:00,
2013-11-25 13:41:00,34.6,20.1,30.23,SSW,210,7.0,8.0,55,0.00,,,0.00,Wunderground v.1.15,2013-11-25 19:41:00,
2013-11-25 13:47:00,34.7,19.7,30.23,WSW,248,7.0,9.0,54,0.00,,,0.00,Wunderground v.1.15,2013-11-25 19:47:00,
2013-11-25 13:53:00,34.6,19.6,30.23,SSW,212,8.0,12.0,54,0.00,,,0.00,Wunderground v.1.15,2013-11-25 19:53:00,
2013-11-25 13:59:00,34.6,20.1,30.23,SW,214,8.0,12.0,55,0.00,,,0.00,Wunderground v.1.15,2013-11-25 19:59:00,
2013-11-25 14:04:00,34.5,19.5,30.22,SW,215,8.0,11.0,54,0.00,,,0.00,Wunderground v.1.15,2013-11-25 20:04:00,
2013-11-25 14:10:00,34.6,20.1,30.22,SSW,198,8.0,11.0,55,0.00,,,0.00,Wunderground v.1.15,2013-11-25 20:10:00,
2013-11-25 14:16:00,34.6,20.1,30.22,SW,220,8.0,11.0,55,0.00,,,0.00,Wunderground v.1.15,2013-11-25 20:16:00,
2013-11-25 14:22:00,34.7,20.6,30.22,SSW,213,7.0,10.0,56,0.00,,,0.00,Wunderground v.1.15,2013-11-25 20:22:00,
2013-11-25 14:28:00,34.8,20.3,30.22,SSW,212,6.0,10.0,55,0.00,,,0.00,Wunderground v.1.15,2013-11-25 20:28:00,
2013-11-25 14:34:00,34.7,20.6,30.22,SW,217,7.0,10.0,56,0.00,,,0.00,Wunderground v.1.15,2013-11-25 20:34:00,
2013-11-25 14:40:00,34.6,20.1,30.22,SSW,198,7.0,11.0,55,0.00,,,0.00,Wunderground v.1.15,2013-11-25 20:40:00,
2013-11-25 14:45:00,34.6,20.1,30.22,SSW,202,7.0,9.0,55,0.00,,,0.00,Wunderground v.1.15,2013-11-25 20:45:00,
2013-11-25 14:51:00,34.6,20.1,30.22,SSW,206,6.0,6.0,55,0.00,,,0.00,Wunderground v.1.15,2013-11-25 20:51:00,
2013-11-25 14:56:00,34.6,20.5,30.21,South,188,6.0,10.0,56,0.00,,,0.00,Wunderground v.1.15,2013-11-25 20:56:00,
2013-11-25 15:01:00,34.6,20.5,30.21,SSW,205,6.0,6.0,56,0.00,,,0.00,Wunderground v.1.15,2013-11-25 21:01:00,
2013-11-25 15:07:00,34.6,20.5,30.21,SSW,204,7.0,10.0,56,0.00,,,0.00,Wunderground v.1.15,2013-11-25 21:07:00,
2013-11-25 15:13:00,34.5,20.4,30.21,South,191,8.0,10.0,56,0.00,,,0.00,Wunderground v.1.15,2013-11-25 21:13:00,
2013-11-25 15:19:00,34.4,20.7,30.21,SSW,195,7.0,10.0,57,0.00,,,0.00,Wunderground v.1.15,2013-11-25 21:19:00,
2013-11-25 15:25:00,34.4,20.7,30.21,SW,217,7.0,10.0,57,0.00,,,0.00,Wunderground v.1.15,2013-11-25 21:25:00,
2013-11-25 15:31:00,34.4,20.7,30.21,SSW,202,8.0,8.0,57,0.00,,,0.00,Wunderground v.1.15,2013-11-25 21:31:00,
2013-11-25 15:37:00,34.3,21.0,30.21,South,175,8.0,12.0,58,0.00,,,0.00,Wunderground v.1.15,2013-11-25 21:37:00,
2013-11-25 15:43:00,34.4,21.1,30.21,SSW,205,7.0,8.0,58,0.00,,,0.00,Wunderground v.1.15,2013-11-25 21:43:00,
2013-11-25 15:49:00,34.4,20.7,30.22,SSW,210,7.0,8.0,57,0.00,,,0.00,Wunderground v.1.15,2013-11-25 21:49:00,
2013-11-25 15:55:00,34.4,21.1,30.21,SSW,198,5.0,6.0,58,0.00,,,0.00,Wunderground v.1.15,2013-11-25 21:55:00,
2013-11-25 16:01:00,34.5,20.8,30.22,SW,229,6.0,6.0,57,0.00,,,0.00,Wunderground v.1.15,2013-11-25 22:01:00,
2013-11-25 16:07:00,34.5,20.8,30.22,SSW,205,7.0,9.0,57,0.00,,,0.00,Wunderground v.1.15,2013-11-25 22:07:00,
2013-11-25 16:13:00,34.5,21.2,30.21,SSW,202,5.0,7.0,58,0.00,,,0.00,Wunderground v.1.15,2013-11-25 22:13:00,
2013-11-25 16:19:00,34.4,21.1,30.21,SSW,201,5.0,8.0,58,0.00,,,0.00,Wunderground v.1.15,2013-11-25 22:19:00,
2013-11-25 16:25:00,34.5,21.2,30.21,SSW,198,5.0,7.0,58,0.00,,,0.00,Wunderground v.1.15,2013-11-25 22:25:00,
2013-11-25 16:31:00,34.4,21.5,30.20,SSW,206,4.0,4.0,59,0.00,,,0.00,Wunderground v.1.15,2013-11-25 22:31:00,
2013-11-25 16:37:00,34.3,21.8,30.20,SSW,205,4.0,7.0,60,0.00,,,0.00,Wunderground v.1.15,2013-11-25 22:37:00,
2013-11-25 16:43:00,34.3,21.4,30.20,SSW,211,4.0,7.0,59,0.00,,,0.00,Wunderground v.1.15,2013-11-25 22:43:00,
2013-11-25 16:49:00,34.3,21.4,30.20,SSW,199,4.0,7.0,59,0.00,,,0.00,Wunderground v.1.15,2013-11-25 22:49:00,
2013-11-25 16:55:00,34.2,21.7,30.20,SSW,208,4.0,7.0,60,0.00,,,0.00,Wunderground v.1.15,2013-11-25 22:55:00,
2013-11-25 17:01:00,34.2,21.4,30.21,SW,214,5.0,5.0,59,0.00,,,0.00,Wunderground v.1.15,2013-11-25 23:01:00,
2013-11-25 17:07:00,34.2,21.7,30.21,SSW,203,4.0,5.0,60,0.00,,,0.00,Wunderground v.1.15,2013-11-25 23:07:00,
2013-11-25 17:13:00,34.1,21.7,30.21,SSW,208,4.0,4.0,60,0.00,,,0.00,Wunderground v.1.15,2013-11-25 23:13:00,
2013-11-25 17:19:00,34.1,21.7,30.21,SSW,197,4.0,5.0,60,0.00,,,0.00,Wunderground v.1.15,2013-11-25 23:19:00,
2013-11-25 17:25:00,34.1,21.7,30.22,South,185,5.0,7.0,60,0.00,,,0.00,Wunderground v.1.15,2013-11-25 23:25:00,
2013-11-25 17:31:00,34.1,21.3,30.22,South,180,6.0,12.0,59,0.00,,,0.00,Wunderground v.1.15,2013-11-25 23:31:00,
2013-11-25 17:37:00,34.1,21.7,30.22,South,191,6.0,12.0,60,0.00,,,0.00,Wunderground v.1.15,2013-11-25 23:37:00,
2013-11-25 17:43:00,34.1,22.0,30.22,South,191,7.0,13.0,61,0.00,,,0.00,Wunderground v.1.15,2013-11-25 23:43:00,
2013-11-25 17:49:00,34.1,22.8,30.23,SW,216,9.0,13.0,63,0.00,,,0.00,Wunderground v.1.15,2013-11-25 23:49:00,
2013-11-25 17:55:00,34.0,23.8,30.22,SSW,200,7.0,9.0,66,0.00,,,0.00,Wunderground v.1.15,2013-11-25 23:55:00,
2013-11-25 18:01:00,33.9,24.4,30.22,SSW,210,7.0,10.0,68,0.00,,,0.00,Wunderground v.1.15,2013-11-26 00:01:00,
2013-11-25 18:07:00,33.8,24.7,30.21,SW,217,7.0,10.0,69,0.00,,,0.00,Wunderground v.1.15,2013-11-26 00:07:00,
2013-11-25 18:13:00,33.8,25.0,30.21,SW,222,7.0,7.0,70,0.00,,,0.00,Wunderground v.1.15,2013-11-26 00:13:00,
2013-11-25 18:19:00,33.8,25.0,30.21,SW,223,6.0,7.0,70,0.00,,,0.00,Wunderground v.1.15,2013-11-26 00:19:00,
2013-11-25 18:25:00,33.7,25.0,30.22,SSW,210,5.0,7.0,70,0.00,,,0.00,Wunderground v.1.15,2013-11-26 00:25:00,
2013-11-25 18:31:00,33.7,24.6,30.22,SW,220,6.0,7.0,69,0.00,,,0.00,Wunderground v.1.15,2013-11-26 00:31:00,
2013-11-25 18:37:00,33.7,24.3,30.22,SW,231,6.0,7.0,68,0.00,,,0.00,Wunderground v.1.15,2013-11-26 00:37:00,
2013-11-25 18:43:00,33.7,24.3,30.21,SSW,202,6.0,6.0,68,0.00,,,0.00,Wunderground v.1.15,2013-11-26 00:43:00,
2013-11-25 18:49:00,33.7,24.3,30.21,SSW,200,5.0,6.0,68,0.00,,,0.00,Wunderground v.1.15,2013-11-26 00:49:00,
2013-11-25 18:55:00,33.9,24.1,30.22,SSW,204,4.0,5.0,67,0.00,,,0.00,Wunderground v.1.15,2013-11-26 00:55:00,
2013-11-25 19:01:00,33.8,24.0,30.21,SSW,210,4.0,5.0,67,0.00,,,0.00,Wunderground v.1.15,2013-11-26 01:01:00,
2013-11-25 19:07:00,33.7,23.9,30.22,SSW,208,4.0,8.0,67,0.00,,,0.00,Wunderground v.1.15,2013-11-26 01:07:00,
2013-11-25 19:13:00,33.8,24.0,30.23,SW,215,5.0,8.0,67,0.00,,,0.00,Wunderground v.1.15,2013-11-26 01:13:00,
2013-11-25 19:19:00,33.8,23.6,30.23,SSW,212,5.0,9.0,66,0.00,,,0.00,Wunderground v.1.15,2013-11-26 01:19:00,
2013-11-25 19:25:00,33.8,23.6,30.23,SSW,211,6.0,6.0,66,0.00,,,0.00,Wunderground v.1.15,2013-11-26 01:25:00,
2013-11-25 19:30:00,33.8,23.6,30.23,SSW,200,5.0,8.0,66,0.00,,,0.00,Wunderground v.1.15,2013-11-26 01:30:00,
2013-11-25 19:36:00,33.9,23.7,30.23,SSW,205,5.0,6.0,66,0.00,,,0.00,Wunderground v.1.15,2013-11-26 01:36:00,
2013-11-25 19:42:00,33.8,24.0,30.22,SSW,204,5.0,5.0,67,0.00,,,0.00,Wunderground v.1.15,2013-11-26 01:42:00,
2013-11-25 19:48:00,33.7,23.5,30.22,SSW,212,4.0,7.0,66,0.00,,,0.00,Wunderground v.1.15,2013-11-26 01:48:00,
2013-11-25 19:54:00,33.9,23.7,30.22,SW,214,4.0,5.0,66,0.00,,,0.00,Wunderground v.1.15,2013-11-26 01:54:00,
2013-11-25 20:00:00,33.8,23.6,30.21,SSW,210,5.0,8.0,66,0.00,,,0.00,Wunderground v.1.15,2013-11-26 02:00:00,
2013-11-25 20:06:00,33.8,23.6,30.22,SW,221,5.0,7.0,66,0.00,,,0.00,Wunderground v.1.15,2013-11-26 02:06:00,
2013-11-25 20:12:00,33.7,23.9,30.21,SW,229,5.0,5.0,67,0.00,,,0.00,Wunderground v.1.15,2013-11-26 02:12:00,
2013-11-25 20:18:00,33.5,23.4,30.21,SW,227,4.0,6.0,66,0.00,,,0.00,Wunderground v.1.15,2013-11-26 02:18:00,
2013-11-25 20:24:00,33.3,23.5,30.20,SW,234,4.0,6.0,67,0.00,,,0.00,Wunderground v.1.15,2013-11-26 02:24:00,
2013-11-25 20:30:00,33.3,23.5,30.20,SW,235,5.0,7.0,67,0.00,,,0.00,Wunderground v.1.15,2013-11-26 02:30:00,
2013-11-25 20:36:00,33.3,23.5,30.20,SW,236,4.0,5.0,67,0.00,,,0.00,Wunderground v.1.15,2013-11-26 02:36:00,
2013-11-25 20:42:00,33.2,23.8,30.20,WSW,238,4.0,5.0,68,0.00,,,0.00,Wunderground v.1.15,2013-11-26 02:42:00,
2013-11-25 20:48:00,33.3,23.5,30.20,SW,233,4.0,6.0,67,0.00,,,0.00,Wunderground v.1.15,2013-11-26 02:48:00,
2013-11-25 20:54:00,33.2,23.4,30.20,WSW,237,4.0,4.0,67,0.00,,,0.00,Wunderground v.1.15,2013-11-26 02:54:00,
2013-11-25 21:00:00,33.1,23.7,30.20,SW,226,4.0,5.0,68,0.00,,,0.00,Wunderground v.1.15,2013-11-26 03:00:00,
2013-11-25 21:06:00,33.1,24.0,30.20,SW,225,4.0,5.0,69,0.00,,,0.00,Wunderground v.1.15,2013-11-26 03:06:00,
2013-11-25 21:12:00,33.2,23.8,30.20,SW,226,3.0,3.0,68,0.00,,,0.00,Wunderground v.1.15,2013-11-26 03:12:00,
2013-11-25 21:18:00,33.0,23.9,30.20,SW,222,3.0,3.0,69,0.00,,,0.00,Wunderground v.1.15,2013-11-26 03:18:00,
2013-11-25 21:24:00,33.0,23.6,30.20,SW,224,3.0,3.0,68,0.00,,,0.00,Wunderground v.1.15,2013-11-26 03:24:00,
2013-11-25 21:30:00,33.0,23.6,30.19,SW,229,3.0,3.0,68,0.00,,,0.00,Wunderground v.1.15,2013-11-26 03:30:00,
2013-11-25 21:36:00,32.9,23.5,30.19,SW,227,2.0,3.0,68,0.00,,,0.00,Wunderground v.1.15,2013-11-26 03:36:00,
2013-11-25 21:42:00,33.0,23.6,30.19,SW,225,2.0,2.0,68,0.00,,,0.00,Wunderground v.1.15,2013-11-26 03:42:00,
2013-11-25 21:48:00,33.3,23.9,30.18,SW,227,2.0,3.0,68,0.00,,,0.00,Wunderground v.1.15,2013-11-26 03:48:00,
2013-11-25 21:54:00,33.2,24.1,30.18,SW,225,2.0,2.0,69,0.00,,,0.00,Wunderground v.1.15,2013-11-26 03:54:00,
2013-11-25 22:00:00,33.1,24.0,30.18,SW,229,2.0,2.0,69,0.00,,,0.00,Wunderground v.1.15,2013-11-26 04:00:00,
2013-11-25 22:06:00,33.2,24.1,30.18,SW,225,2.0,2.0,69,0.00,,,0.00,Wunderground v.1.15,2013-11-26 04:06:00,
2013-11-25 22:12:00,33.0,23.9,30.18,SW,221,2.0,2.0,69,0.00,,,0.00,Wunderground v.1.15,2013-11-26 04:12:00,
2013-11-25 22:18:00,33.0,24.3,30.18,SW,222,2.0,3.0,70,0.00,,,0.00,Wunderground v.1.15,2013-11-26 04:18:00,
2013-11-25 22:24:00,33.2,24.1,30.19,SW,225,2.0,3.0,69,0.00,,,0.00,Wunderground v.1.15,2013-11-26 04:24:00,
2013-11-25 22:30:00,33.2,23.8,30.19,SW,226,2.0,5.0,68,0.00,,,0.00,Wunderground v.1.15,2013-11-26 04:30:00,
2013-11-25 22:36:00,33.3,23.5,30.19,SW,225,3.0,5.0,67,0.00,,,0.00,Wunderground v.1.15,2013-11-26 04:36:00,
2013-11-25 22:42:00,33.4,23.6,30.19,SW,226,3.0,3.0,67,0.00,,,0.00,Wunderground v.1.15,2013-11-26 04:42:00,
2013-11-25 22:48:00,33.2,23.8,30.19,SW,229,3.0,5.0,68,0.00,,,0.00,Wunderground v.1.15,2013-11-26 04:48:00,
2013-11-25 22:54:00,33.0,23.6,30.19,SW,226,3.0,3.0,68,0.00,,,0.00,Wunderground v.1.15,2013-11-26 04:54:00,
2013-11-25 23:00:00,33.1,24.0,30.20,SW,223,3.0,3.0,69,0.00,,,0.00,Wunderground v.1.15,2013-11-26 05:00:00,
2013-11-25 23:01:00,33.2,24.1,30.20,SW,224,3.0,5.0,69,0.00,,,0.00,Wunderground v.1.15,2013-11-26 05:01:00,
2013-11-25 23:02:00,33.2,23.8,30.20,SW,225,3.0,5.0,68,0.00,,,0.00,Wunderground v.1.15,2013-11-26 05:02:00,
2013-11-25 23:03:00,33.2,23.8,30.20,SW,223,3.0,5.0,68,0.00,,,0.00,Wunderground v.1.15,2013-11-26 05:03:00,
2013-11-25 23:04:00,33.2,23.8,30.20,SW,225,3.0,5.0,68,0.00,,,0.00,Wunderground v.1.15,2013-11-26 05:04:00,
2013-11-25 23:09:00,33.1,23.7,30.21,SSW,194,4.0,6.0,68,0.00,,,0.00,Wunderground v.1.15,2013-11-26 05:09:00,
2013-11-25 23:11:00,33.1,23.7,30.21,SSW,197,4.0,6.0,68,0.00,,,0.00,Wunderground v.1.15,2013-11-26 05:11:00,
2013-11-25 23:14:00,33.1,23.3,30.21,SSW,197,5.0,6.0,67,0.00,,,0.00,Wunderground v.1.15,2013-11-26 05:14:00,
2013-11-25 23:20:00,33.3,23.5,30.21,SSW,196,5.0,6.0,67,0.00,,,0.00,Wunderground v.1.15,2013-11-26 05:20:00,
2013-11-25 23:26:00,33.3,23.5,30.21,SSW,196,4.0,6.0,67,0.00,,,0.00,Wunderground v.1.15,2013-11-26 05:26:00,
2013-11-25 23:32:00,33.4,23.6,30.21,SSW,194,4.0,6.0,67,0.00,,,0.00,Wunderground v.1.15,2013-11-26 05:32:00,
2013-11-25 23:38:00,33.3,23.9,30.20,SSW,196,4.0,8.0,68,0.00,,,0.00,Wunderground v.1.15,2013-11-26 05:38:00,
2013-11-25 23:44:00,33.3,24.2,30.20,SSW,200,4.0,5.0,69,0.00,,,0.00,Wunderground v.1.15,2013-11-26 05:44:00,
2013-11-25 23:50:00,33.3,24.2,30.19,SSW,197,4.0,5.0,69,0.00,,,0.00,Wunderground v.1.15,2013-11-26 05:50:00,
2013-11-25 23:56:00,33.3,24.2,30.19,SSW,197,3.0,4.0,69,0.00,,,0.00,Wunderground v.1.15,2013-11-26 05:56:00,